Location: Lake Arresoe
(56.0000°N, 12.5000°E)
Time: 02:12:27
(UTC+02:00)

Cosmos 1674 - Visible Passes

Search period start: 20 August 2017 00:00
Search period end: 30 August 2017 00:00
Orbit: 499 x 521 km, 82.5° (Epoch: 19 August)

Date Brightness Start Highest point End Pass type
(mag) Time Alt. Az. Time Alt. Az. Time Alt. Az.
20 Aug 4.8 00:11:21 10° NNE 00:14:05 18° ENE 00:15:22 16° E visible
20 Aug 2.7 01:46:16 10° NNW 01:50:08 65° W 01:50:15 65° WSW visible
20 Aug 5.0 23:54:55 10° NNE 23:57:19 16° ENE 23:58:38 13° E visible
21 Aug 2.6 01:29:35 10° NNW 01:33:29 80° W 01:33:31 80° WSW visible
21 Aug 5.1 03:07:23 10° WNW 03:08:22 11° W 03:08:24 11° W visible
21 Aug 5.1 23:38:34 10° NNE 23:40:31 13° ENE 23:41:56 11° E visible
22 Aug 2.6 01:12:54 10° NNW 01:16:48 85° ENE 01:16:48 85° ENE visible
22 Aug 5.0 02:50:01 10° NW 02:51:42 13° W 02:51:42 13° W visible
22 Aug 5.3 23:22:22 10° NE 23:23:43 11° NE 23:25:04 10° ENE visible
23 Aug 2.8 00:56:15 10° N 01:00:07 70° ENE 01:00:07 70° ENE visible
23 Aug 4.8 02:32:56 10° NW 02:35:00 15° W 02:35:00 15° W visible
24 Aug 3.0 00:39:36 10° N 00:43:25 57° ENE 00:43:25 57° ENE visible
24 Aug 4.7 02:15:58 10° NW 02:18:18 18° WNW 02:18:18 18° WNW visible
25 Aug 3.3 00:22:58 10° N 00:26:44 47° ENE 00:26:44 47° ENE visible
25 Aug 4.5 01:59:05 10° NW 02:01:37 21° WNW 02:01:37 21° WNW visible
26 Aug 3.6 00:06:22 10° N 00:10:02 39° ENE 00:10:03 39° ENE visible
26 Aug 4.3 01:42:15 10° NNW 01:44:57 25° WNW 01:44:57 25° WNW visible
26 Aug 3.8 23:49:45 10° N 23:53:18 33° ENE 23:53:23 33° ENE visible
27 Aug 4.1 01:25:27 10° NNW 01:28:17 29° WNW 01:28:17 29° WNW visible
27 Aug 4.1 23:33:10 10° N 23:36:33 28° ENE 23:36:43 27° ENE visible
28 Aug 3.9 01:08:40 10° NNW 01:11:37 34° WNW 01:11:37 34° WNW visible
28 Aug 4.3 23:16:36 10° N 23:19:47 24° ENE 23:20:04 23° ENE visible
29 Aug 3.7 00:51:55 10° NNW 00:54:58 40° WNW 00:54:58 40° WNW visible
29 Aug 4.5 23:00:05 10° NNE 23:03:01 20° ENE 23:03:25 20° ENE visible
